Powrót do katalogu

CZ-2C DEB

AktywnySSO
NORAD 37733·DEBRIS·🇨🇳 China

Wystrzelony Jul 6, 2011 z Jiuquan Satellite Launch Center

Loading…

Następne Przeloty (najbliższe 24 godziny)

TLE

ŚwieżeSource: Space-Track

Epoka: Sep 14, 2026, 02:47 UTC

1 37733U 11030D   26257.11599802  .00002254  00000-0  61736-3 0  9994
2 37733  98.5723 216.4167 0123061 328.9242  88.7249 14.43805855792558

Śledź CZ-2C DEB w czasie rzeczywistym z AllMySat

Download on the App Store